STARLINK-31104 (58672 NORAD) Tracking and Keplerian Element Data

This shows tracking and keplerian element data for the satellite.

Feedback or suggestion? Click here.




ElementValue
Catalog58672
NameSTARLINK-31104
Epoch Orbit351
Epoch Day13.25002315
Epoch Year2024
RAAN202.0961
Inclination43.0003
Eccentricity0.0001742
Argument of Perigee278.5268
Mean Anonmoly41.9215
Mean Motion15.72803817
Decay Rate-0.01589563
L11 58672U 23211F 24013.25002315 -.01589563 00000+0 -12799-1 0 9992
L22 58672 43.0003 202.0961 0001742 278.5268 41.9215 15.72803817 3515



Live tracking and technical data element details for STARLINK-31104 (NORAD 58672). STARLINK-31104 can be tracked NOW for your location showing map with azimuth and elevation plus other details from your city location.







IsCatalogInMostPopularTable: catalog: 58672, numindb: 23
Update: records affected: 1



GetName: 58672 STARLINK-31104

Hit Count: updated at: Wed, 17 Apr 2024 02:54:05 GMT